{"data":{"norad_id":58295,"epoch":"2026-09-21T22:01:38.995680Z","epoch_age_seconds":116770,"freshness":"FRESH","line1":"1 58295U 23174AR  26264.91781245  .00028565  00000+0  34210-3 0  9991","line2":"2 58295  97.4003   5.9115 0007670  77.1154 283.0960 15.60890291161210","mean_motion":15.60890291,"eccentricity":0.000767,"inclination_deg":97.4003,"raan_deg":5.9115,"arg_perigee_deg":77.1154,"mean_anomaly_deg":283.096,"bstar":0.0003421,"rev_number":16121,"period_min":92.255042414124,"perigee_km":379.89675751622,"apogee_km":390.27153875746,"semimajor_km":6763.2211481368,"source":"CELESTRAK","updated_at":"2026-09-22T09:00:26.577891Z"}}